Torna al catalogo

FENGYUN 1C DEB

AttivoSSO
NORAD 30596·DEBRIS·🇨🇳 China

Lanciato May 10, 1999 da Taiyuan Satellite Launch Center

Loading…

Prossimi Passaggi (prossime 24 ore)

TLE

AggiornatoSource: Space-Track

Epoca: Sep 14, 2026, 11:06 UTC

1 30596U 99025AMB 26257.46315888  .00000324  00000-0  93858-4 0  9999
2 30596  98.4265 253.5691 0246525 187.2320 327.1172 14.34929915 25138

Traccia FENGYUN 1C DEB in tempo reale con AllMySat

Download on the App Store